Regional Weather Roundup
Issued by NWS Sioux Falls, SD

Home | Current Version | Previous Version | Text Only | Print | Product List | Glossary On
Versions: 1 2 3 4 5 6 7 8 9 10 11 12 13 14 15 16 17 18 19 20 21 22 23 24 25 26 27 28 29 30 31 32 33 34 35 36 37 38 39 40 41 42 43 44 45 46 47 48 49 50
000
ASUS43 KFSD 290110
RWRFSD

WEATHER ROUNDUP FOR SE SOUTH DAKOTA/SW MINNESOTA/NW IOWA
NATIONAL WEATHER SERVICE SIOUX FALLS SD
800 PM CDT SUN AUG 28 2016

NOTE: "FAIR" INDICATES FEW OR NO CLOUDS BELOW 12,000 FEET WITH NO
SIGNIFICANT WEATHER AND OR OBSTRUCTIONS TO VISIBILITY.


SDZ038>040-050-052>070-290200-
SOUTHEAST SOUTH DAKOTA

CITY           SKY/WX    TMP DP  RH WIND       PRES   REMARKS
BROOKINGS        N/A    N/A N/A N/A MISG        N/A
CHAMBERLAIN    PTCLDY    88  65  45 S10       29.95R
HURON          CLEAR     85  67  54 S15G24    29.94R
MADISON        FAIR      79  73  83 S15G21    30.04R
MITCHELL       CLEAR     85  66  53 S15       29.98R
SIOUX FALLS    PTCLDY    83  70  64 SE13      30.04R
WINNER         FAIR      86  65  49 S10       29.97R
YANKTON        CLEAR     82  70  65 SE9       30.02R
$$

MNZ071-072-080-081-089-090-097-098-290200-
SOUTHWEST MINNESOTA

CITY           SKY/WX    TMP DP  RH WIND       PRES   REMARKS
JACKSON          N/A     79  68  69 SE7       30.11S
LUVERNE        CLEAR     79  70  73 S6        30.07R
MARSHALL       CLEAR     81  74  79 S9        30.04R
MONTEVIDEO     CLEAR     81  73  78 S9        30.04R
REDWOOD FALLS  CLEAR     80  69  69 SE13      30.05R
TRACY          CLEAR     80  73  80 S7        30.06R
WINDOM         CLEAR     79  68  69 SE7       30.10R
WORTHINGTON    CLOUDY    78  73  84 SE9       30.10R
$$

IAZ001>003-012>014-020>022-031-032-NEZ013-014-SDZ071-290200-
NORTHWEST IOWA

CITY           SKY/WX    TMP DP  RH WIND       PRES   REMARKS
CHEROKEE       PTCLDY    75  67  77 S13G18    30.10R
DENISON        PTCLDY    72  66  83 VRB7G14   30.07F
ESTHERVILLE    PTCLDY    74  71  91 SE7       30.10R
LE MARS        MOCLDY    81  70  69 S18G33    30.08R
ORANGE CITY    MOCLDY    81  73  78 SE6       30.08R
SHELDON        PTCLDY    79  75  89 SE8       30.07R
SIOUX CITY     MOCLDY    77  66  68 S20G29    30.08R
SPENCER        PTCLDY    78  71  79 SE7       30.10R
STORM LAKE     CLOUDY    73  66  78 S6        30.12R
$$

ABBREVIATIONS USED IN REMARKS
   TC - TEMPERATURE IN CELSIUS
  WCI - WIND CHILL INDEX
   HX - HEAT INDEX
  VSB - VISIBILITY




USA.gov is the U.S. government's official web portal to all federal, state and local government web resources and services.